Find Starlink 33929

NORAD ID: 64188 Int'l Des: 2025-113 Owner: SPXS Country: US Constellation: starlink operational
LEOCIRCULAR

Live Position

Loading 3D Globe...

About Starlink 33929

Description loading...

Upcoming Passes

Passes for default location (London). Set your location on the main map for personalized predictions.

Altitude History

Loading altitude history...

Two-Line Element Set

1 64188U 25113U 26106.76305911 .00024222 00000-0 82751-3 0 9994
2 64188 53.1550 274.3263 0000916 84.6700 275.4405 15.30190876 50895
Epoch: Apr 16, 2026 • Age: 16 hours

Current Status

Altitude 479.7 km
Velocity 7.63 km/s
Sub-Earth Point 46.66°N, 36.14°E
Launch Date May 28, 2025
Age 0.8 years
Type internet

Technical Details

Classification Payload
Mass 575.00 kg
Dry Mass 530.00 kg
Total Mass 575.00 kg
Length 0.30 m
Diameter 4.10 m
Span 29.00 m
Shape Box + pan
Manufacturer SPXS
Bus Type Starlink V2MO
Phase Status In Orbit
Owner/State SPXS/US

Most Searched